BEL7AM LOWW-EDDM

Flight info

Callsign BEL7AM
Flight time N/A
Altitude 34000
Route EDDM
Aircraft A320/M-SDE3FGHIRWY/LB1

Departure

Time N/A
Airport Vienna International Airport (LOWW)

Arrival

Time 2026-05-04 19:26
Airport Munich Airport (EDDM)
Time Latitude Longitude Altitude Speed Heading
2026-05-04 19:08 48.80020 12.65420 21273 ft 386 kts 215°
2026-05-04 19:09 48.77817 12.63184 20644 ft 385 kts 214°
2026-05-04 19:09 48.75567 12.60905 20091 ft 383 kts 214°
2026-05-04 19:09 48.73390 12.58695 19909 ft 370 kts 214°
2026-05-04 19:09 48.71327 12.56597 19910 ft 353 kts 214°
2026-05-04 19:10 48.69313 12.54555 19915 ft 336 kts 214°
2026-05-04 19:10 48.67395 12.52611 19912 ft 328 kts 214°
2026-05-04 19:10 48.65530 12.50719 19921 ft 326 kts 214°
2026-05-04 19:10 48.63645 12.48808 19925 ft 326 kts 214°
2026-05-04 19:11 48.61714 12.47018 19925 ft 327 kts 204°
2026-05-04 19:11 48.59505 12.46205 19569 ft 332 kts 183°
2026-05-04 19:11 48.57193 12.46442 19090 ft 334 kts 175°
2026-05-04 19:11 48.54883 12.46873 18621 ft 335 kts 175°
2026-05-04 19:12 48.52570 12.47319 18143 ft 335 kts 174°
2026-05-04 19:12 48.47924 12.48212 17074 ft 336 kts 175°
2026-05-04 19:12 48.45605 12.48657 16555 ft 336 kts 174°
2026-05-04 19:13 48.43285 12.49058 16043 ft 335 kts 180°
2026-05-04 19:13 48.41009 12.48546 15536 ft 331 kts 201°
2026-05-04 19:13 48.39065 12.46753 15047 ft 330 kts 223°
2026-05-04 19:13 48.37597 12.44100 14567 ft 329 kts 230°
2026-05-04 19:14 48.36060 12.41595 14081 ft 319 kts 225°
2026-05-04 19:14 48.34537 12.39260 13603 ft 306 kts 225°
2026-05-04 19:14 48.33074 12.37018 13073 ft 295 kts 225°
2026-05-04 19:14 48.31662 12.34853 12552 ft 286 kts 225°
2026-05-04 19:15 48.30294 12.32747 12012 ft 278 kts 227°
2026-05-04 19:15 48.29309 12.30292 11455 ft 275 kts 252°
2026-05-04 19:15 48.29192 12.27452 10910 ft 276 kts 278°
2026-05-04 19:15 48.29970 12.24836 10375 ft 278 kts 306°
2026-05-04 19:16 48.31481 12.23031 9837 ft 281 kts 334°
2026-05-04 19:16 48.33368 12.22360 9278 ft 279 kts 352°
2026-05-04 19:16 48.35292 12.22114 8719 ft 276 kts 354°
2026-05-04 19:16 48.37195 12.21909 8160 ft 273 kts 355°
2026-05-04 19:17 48.39074 12.21711 7610 ft 269 kts 357°
2026-05-04 19:17 48.40891 12.22146 7064 ft 264 kts 25°
2026-05-04 19:17 48.42278 12.23802 6734 ft 251 kts 57°
2026-05-04 19:17 48.42891 12.26208 6498 ft 246 kts 88°
2026-05-04 19:18 48.42611 12.28654 6257 ft 241 kts 118°
2026-05-04 19:18 48.41522 12.30507 5992 ft 232 kts 150°
2026-05-04 19:18 48.40010 12.31135 5741 ft 225 kts 185°
2026-05-04 19:18 48.38644 12.30243 5498 ft 220 kts 227°
2026-05-04 19:19 48.38010 12.28193 5257 ft 221 kts 261°
2026-05-04 19:19 48.37832 12.25882 5052 ft 223 kts 264°
2026-05-04 19:19 48.37681 12.23572 4985 ft 217 kts 263°
2026-05-04 19:19 48.37522 12.21326 4992 ft 215 kts 263°
2026-05-04 19:20 48.37360 12.19090 4995 ft 215 kts 263°
2026-05-04 19:20 48.37196 12.16853 4999 ft 215 kts 263°
2026-05-04 19:20 48.37033 12.14621 5000 ft 215 kts 263°
2026-05-04 19:20 48.36870 12.12399 4998 ft 209 kts 263°
2026-05-04 19:21 48.36717 12.10314 5026 ft 191 kts 263°
2026-05-04 19:21 48.36574 12.08384 4983 ft 184 kts 263°
2026-05-04 19:21 48.36434 12.06488 4821 ft 182 kts 262°
2026-05-04 19:21 48.36294 12.04597 4600 ft 182 kts 263°
2026-05-04 19:22 48.36153 12.02709 4368 ft 182 kts 263°
2026-05-04 19:22 48.36013 12.00822 4136 ft 181 kts 263°
2026-05-04 19:22 48.35873 11.98941 3898 ft 181 kts 263°
2026-05-04 19:22 48.35734 11.97079 3680 ft 173 kts 263°
2026-05-04 19:23 48.35646 11.95906 3528 ft 162 kts 263°
2026-05-04 19:23 48.35523 11.94279 3316 ft 153 kts 264°
2026-05-04 19:23 48.35405 11.92710 3121 ft 150 kts 264°
2026-05-04 19:23 48.35289 11.91160 2929 ft 149 kts 264°
2026-05-04 19:24 48.35173 11.89622 2735 ft 148 kts 264°
2026-05-04 19:24 48.35057 11.88087 2539 ft 148 kts 264°
2026-05-04 19:24 48.34941 11.86561 2339 ft 146 kts 264°
2026-05-04 19:24 48.34829 11.85077 2139 ft 143 kts 265°
2026-05-04 19:25 48.34716 11.83599 1942 ft 141 kts 265°
2026-05-04 19:25 48.34606 11.82142 1743 ft 140 kts 265°
2026-05-04 19:25 48.34496 11.80695 1566 ft 139 kts 264°
2026-05-04 19:25 48.34393 11.79310 1480 ft 121 kts 263°
2026-05-04 19:26 48.34316 11.78301 1485 ft 72 kts 263°
2026-05-04 19:26 48.34268 11.77684 1485 ft 49 kts 263°
2026-05-04 19:26 48.34252 11.77419 1485 ft 23 kts 271°
2026-05-04 19:26 48.34284 11.77179 1479 ft 24 kts 289°
2026-05-04 19:27 48.34344 11.76958 1482 ft 16 kts 292°
2026-05-04 19:27 48.34385 11.76806 1483 ft 15 kts 295°
2026-05-04 19:27 48.34461 11.76707 1480 ft 15 kts 342°
2026-05-04 19:27 48.34555 11.76695 1485 ft 12 kts 20°
2026-05-04 19:28 48.34581 11.76830 1472 ft 20 kts 84°
2026-05-04 19:28 48.34600 11.77047 1483 ft 22 kts 83°
2026-05-04 19:28 48.34617 11.77288 1485 ft 24 kts 83°
2026-05-04 19:28 48.34637 11.77550 1479 ft 26 kts 84°
2026-05-04 19:29 48.34655 11.77781 1479 ft 22 kts 82°
2026-05-04 19:29 48.34672 11.78017 1485 ft 24 kts 83°
2026-05-04 19:29 48.34693 11.78272 1481 ft 26 kts 83°
2026-05-04 19:29 48.34713 11.78528 1479 ft 18 kts 84°
2026-05-04 19:30 48.34730 11.78732 1481 ft 21 kts 83°
2026-05-04 19:30 48.34746 11.78959 1485 ft 23 kts 83°
2026-05-04 19:30 48.34765 11.79207 1485 ft 25 kts 83°
2026-05-04 19:30 48.34778 11.79387 1482 ft 3 kts 83°
2026-05-04 19:31 48.34778 11.79393 1483 ft 5 kts 83°
2026-05-04 19:31 48.34788 11.79502 1481 ft 12 kts 78°
2026-05-04 19:31 48.34845 11.79560 1485 ft 10 kts
2026-05-04 19:31 48.34903 11.79549 1486 ft 0 kts 353°
2026-05-04 19:33 48.34952 11.79541 1485 ft 11 kts 353°
2026-05-04 19:33 48.35030 11.79526 1479 ft 12 kts 352°
2026-05-04 19:33 48.35093 11.79593 1482 ft 14 kts 75°
2026-05-04 19:33 48.35105 11.79742 1485 ft 14 kts 82°
2026-05-04 19:34 48.35118 11.79877 1485 ft 12 kts 80°
2026-05-04 19:34 48.35126 11.79998 1479 ft 11 kts 86°
2026-05-04 19:34 48.35132 11.80109 1482 ft 10 kts 84°
2026-05-04 19:34 48.35162 11.80190 1483 ft 11 kts 20°
2026-05-04 19:35 48.35265 11.80175 1482 ft 18 kts 354°
2026-05-04 19:35 48.35395 11.80147 1482 ft 20 kts 349°
2026-05-04 19:35 48.35541 11.80117 1482 ft 22 kts 353°
2026-05-04 19:35 48.35633 11.80091 1475 ft 6 kts 317°
2026-05-04 19:36 48.35636 11.80026 1485 ft 6 kts 266°
2026-05-04 19:36 48.35632 11.79980 1485 ft 2 kts 262°
2026-05-04 19:36 48.35631 11.79977 1485 ft 0 kts 263°